Flag for Marshall Islands Weather past 2 weeks in Majuro, Marshall Islands

Now
81 °F

Sprinkles. Overcast.


Feels Like: 88 °F
Forecast: 79 / 83 °F
Wind: 13 mph from Northwest

Location: Majuro Atoll

Current Time: Jul 3, 2015 at 1:43:36 AM

Latest Report: Jul 3, 2015 at 12:51 AM


Visibility: 14 mi

Pressure: 29.67 "Hg

Humidity: 92%

Dew point: 78 °F

Location of MajuroLocation

Historic Weather in Majuro — Graph

°F

Majuro temperature yesterday

Maximum temperature yesterday: 84 °F (at 9:55 AM)
Minimum temperature yesterday: 78 °F (at 2:57 AM)
Average temperature yesterday: 81 °F

Past Weeks' High & Low Weather Summary

 TemperatureHumidityPressure
High88 °F (Jun 18, 2:53 PM)94% (Jul 2, 2:57 AM)29.86 "Hg (Jul 2, 2:57 AM)
Low78 °F (Jun 21, 1:52 PM)70% (Jun 24, 1:51 PM)29.62 "Hg (Jul 2, 3:50 PM)
Average83 °F83%29.77 "Hg
* Reported Jun 17 11:53 PM — Jul 2 11:52 PM, Majuro, Weather by CustomWeather, © 2015

Note: Actual official high and low records may vary slightly from our data, if they occured in-between our weather recording intervals... More about our weather records

Advertising

Majuro weather history for previous 24 hours

 ConditionsComfort  
Time TempWeatherWind HumidityBarometerVisibility
11:52 PM
Thu, Jul 2
80 °FOvercast.14 mph92%29.69 "Hg15 mi
10:53 PM81 °FOvercast.13 mph90%29.69 "Hg15 mi
9:52 PM81 °FMostly cloudy.14 mph90%29.70 "Hg15 mi
8:52 PM80 °FMostly cloudy.10 mph93%29.67 "Hg15 mi
7:52 PM81 °FLight rain. More clouds than sun.20 mph90%29.65 "Hg14 mi
6:53 PM81 °FSprinkles. Cloudy.29 mph90%29.63 "Hg14 mi
5:56 PM80 °FCloudy.16 mph90%29.62 "Hg15 mi
4:51 PM80 °FCloudy.18 mph90%29.64 "Hg15 mi
3:50 PM81 °FCloudy.21 mph89%29.62 "Hg15 mi
2:57 PM83 °FCloudy.13 mph84%29.67 "Hg15 mi
1:51 PM83 °FCloudy.14 mph85%29.66 "Hg15 mi
12:55 PM83 °FCloudy.15 mph86%29.68 "Hg15 mi
11:55 AM82 °FCloudy.9 mph86%29.70 "Hg15 mi
10:54 AM84 °FCloudy.17 mph84%29.70 "Hg15 mi
9:55 AM84 °FCloudy.14 mph84%29.73 "Hg15 mi
8:54 AM83 °FCloudy.12 mph85%29.72 "Hg15 mi
7:53 AM82 °FCloudy.15 mph88%29.70 "Hg15 mi
6:54 AM80 °FOvercast.No wind89%29.69 "Hg15 mi
5:55 AM80 °FOvercast.9 mph89%29.69 "Hg15 mi
4:50 AM79 °FOvercast.12 mph92%29.70 "Hg15 mi
3:50 AM78 °FRain showers. Overcast.3 mph93%29.70 "Hg5 mi
2:57 AM78 °FOvercast.10 mph94%29.70 "Hg15 mi
1:52 AM78 °FSprinkles. Overcast.10 mph93%29.73 "Hg8 mi
Weather by CustomWeather, © 2015

See weather overviewHow to use our weather pages